Terminal Aerodrome Forecast
Issued by NWS

Home | Current Version | Previous Version | Text Only | Print | Product List | Glossary On
Versions: 1 2 3 4 5 6 7 8 9 10 11 12 13 14 15 16 17 18 19 20 21 22 23 24 25 26
000
FTUS41 KPBZ 072320
TAFFKL
TAF
KFKL 072320Z 0800/0824 28010G20KT P6SM VCTS OVC035CB
      TEMPO 0800/0802 2SM TSRA OVC020CB
     FM080500 25006KT 3SM BR VCSH OVC012
     FM080600 24008KT 3SM -SHRA BR OVC004
     FM081500 33004KT 6SM BR OVC015
     FM081800 34005KT P6SM BKN025
      AMD LTD TO CLD VIS AND WIND=

USA.gov is the U.S. government's official web portal to all federal, state and local government web resources and services.